Location: Chemnitz
(49.5500°N, 11.5830°E)
Time: 02:49:33
(UTC+01:00)

ISS - Pass Details

Date: 13 January 2018
Orbit: 402 x 407 km, 51.6° (Epoch: 23 January)

Event Time Altitude Azimuth Distance (km) Brightness Sun altitude
Exits shadow 07:06:09 - 258° (WSW) 1,512 -1.4 -9.4°
Reaches altitude 10° 07:06:21 10° 255° (WSW) 1,466 -1.5 -9.4°
Maximum altitude 07:08:07 14° 223° (SW) 1,256 -1.5 -9.1°
Drops below altitude 10° 07:09:52 10° 190° (S) 1,462 -0.8 -8.9°
Sets 07:12:41 0° 163° (SSE) 2,318 0.6 -8.4°
